| time (UTC) | temp F | wind direction | speed knots | gust knots | rain 1hr in | rain 24hr in | rain mn in | humidity % | barometer mb |
| 20260901131751 | 78 | 154 | 3.5 | 6.1 | 0.00 | 0.00 | 0.00 | 78 | 1014.9 |
| 20260901131510 | 77 | 140 | 2.6 | 6.1 | 0.00 | 0.00 | 0.00 | 79 | 1012.2 |
| 20260901131304 | 77 | 171 | 3.5 | 7.0 | 0.00 | 0.00 | 0.00 | 79 | 1014.8 |
| 20260901130725 | 77 | 155 | 3.5 | 7.0 | 0.00 | 0.00 | 0.00 | 80 | 1014.8 |
| 20260901130237 | 76 | 159 | 4.3 | 7.0 | 0.00 | 0.00 | 0.00 | 81 | 1014.8 |
| 20260901130020 | 76 | 157 | 2.6 | 6.1 | 0.00 | 0.00 | 0.00 | 81 | 1012.2 |
| 20260901125722 | 76 | 164 | 3.5 | 6.1 | 0.00 | 0.00 | 0.00 | 82 | 1014.8 |
| 20260901125236 | 75 | 167 | 3.5 | 6.1 | 0.00 | 0.00 | 0.00 | 82 | 1014.6 |
| 20260901124750 | 75 | 163 | 4.3 | 6.1 | 0.00 | 0.00 | 0.00 | 82 | 1014.7 |
| 20260901124510 | 75 | 138 | 2.6 | 7.0 | 0.00 | 0.00 | 0.00 | 82 | 1012.0 |
| 20260901124239 | 75 | 140 | 3.5 | 7.0 | 0.00 | 0.00 | 0.00 | 82 | 1014.6 |
| 20260901123809 | 75 | 155 | 4.3 | 7.0 | 0.00 | 0.00 | 0.00 | 82 | 1014.5 |
| 20260901123231 | 75 | 155 | 4.3 | 7.0 | 0.00 | 0.00 | 0.00 | 82 | 1014.5 |
| 20260901123101 | 74 | 146 | 2.6 | 6.1 | 0.00 | 0.00 | 0.00 | 82 | 1011.8 |
| 20260901122743 | 75 | 159 | 3.5 | 7.0 | 0.00 | 0.00 | 0.00 | 82 | 1014.3 |
| 20260901122228 | 75 | 159 | 3.5 | 7.8 | 0.00 | 0.00 | 0.00 | 82 | 1014.4 |
| 20260901121801 | 75 | 153 | 5.2 | 7.8 | 0.00 | 0.00 | 0.00 | 82 | 1014.3 |
| 20260901121529 | 74 | 163 | 3.5 | 6.1 | 0.00 | 0.00 | 0.00 | 82 | 1011.7 |
| 20260901121227 | 75 | 175 | 3.5 | 6.1 | 0.00 | 0.00 | 0.00 | 82 | 1014.2 |
| 20260901120811 | 75 | 148 | 2.6 | 6.1 | 0.00 | 0.00 | 0.00 | 82 | 1014.2 |
| 20260901120233 | 75 | 140 | 4.3 | 6.1 | 0.00 | 0.00 | 0.00 | 82 | 1014.2 |
| 20260901120101 | 75 | 157 | 3.5 | 5.2 | 0.00 | 0.00 | 0.00 | 82 | 1011.5 |
| 20260901120002 | 75 | 156 | 2.6 | 4.3 | 0.00 | 0.00 | 0.00 | 82 | 1011.6 |
| 20260901115745 | 75 | 156 | 1.7 | 4.3 | 0.00 | 0.00 | 0.00 | 82 | 1014.2 |
| 20260901115230 | 75 | 156 | 2.6 | 4.3 | 0.00 | 0.00 | 0.00 | 82 | 1014.2 |
| 20260901114742 | 75 | 156 | 1.7 | 4.3 | 0.00 | 0.00 | 0.00 | 81 | 1014.2 |
| 20260901114509 | 75 | 156 | 0.9 | 4.3 | 0.00 | 0.00 | 0.00 | 81 | 1011.5 |
| 20260901114225 | 75 | 157 | 1.7 | 4.3 | 0.00 | 0.00 | 0.00 | 81 | 1014.2 |
| 20260901113729 | 75 | 156 | 2.6 | 4.3 | 0.00 | 0.00 | 0.00 | 81 | 1014.1 |
| 20260901113243 | 76 | 157 | 1.7 | 4.3 | 0.00 | 0.00 | 0.00 | 80 | 1014.2 |
| 20260901113058 | 75 | 156 | 0.9 | 4.3 | 0.00 | 0.00 | 0.00 | 80 | 1011.5 |
| 20260901112725 | 76 | 156 | 0.9 | 5.2 | 0.00 | 0.00 | 0.00 | 80 | 1014.2 |
| 20260901112237 | 76 | 156 | 1.7 | 5.2 | 0.00 | 0.00 | 0.00 | 81 | 1014.2 |
| 20260901111749 | 76 | 157 | 2.6 | 6.1 | 0.00 | 0.00 | 0.00 | 81 | 1014.2 |
| 20260901111600 | 75 | 156 | 1.7 | 7.0 | 0.00 | 0.00 | 0.00 | 81 | 1011.5 |
| 20260901111502 | 75 | 157 | 1.7 | 7.0 | 0.00 | 0.00 | 0.00 | 81 | 1011.5 |
| 20260901111234 | 76 | 157 | 2.6 | 7.0 | 0.00 | 0.00 | 0.00 | 81 | 1014.2 |
| 20260901110745 | 76 | 159 | 4.3 | 7.0 | 0.00 | 0.00 | 0.00 | 80 | 1014.2 |
| 20260901110229 | 76 | 198 | 4.3 | 6.1 | 0.00 | 0.00 | 0.00 | 80 | 1014.2 |
| 20260901110013 | 75 | 161 | 3.5 | 7.0 | 0.00 | 0.00 | 0.00 | 80 | 1011.5 |
| 20260901105740 | 76 | 163 | 3.5 | 7.0 | 0.00 | 0.00 | 0.00 | 80 | 1014.2 |
| 20260901105223 | 76 | 162 | 4.3 | 7.0 | 0.00 | 0.00 | 0.00 | 81 | 1014.2 |
| 20260901104732 | 76 | 197 | 3.5 | 6.1 | 0.00 | 0.00 | 0.00 | 82 | 1014.1 |
| 20260901104518 | 76 | 159 | 2.6 | 5.2 | 0.00 | 0.00 | 0.00 | 82 | 1011.5 |
| 20260901104305 | 76 | 160 | 2.6 | 4.3 | 0.00 | 0.00 | 0.00 | 82 | 1014.3 |
| 20260901103726 | 77 | 155 | 2.6 | 4.3 | 0.00 | 0.00 | 0.00 | 82 | 1014.2 |
| 20260901103240 | 77 | 155 | 1.7 | 4.3 | 0.00 | 0.00 | 0.00 | 82 | 1014.3 |
| 20260901103049 | 76 | 155 | 1.7 | 4.3 | 0.00 | 0.00 | 0.00 | 82 | 1011.7 |
| 20260901102724 | 77 | 155 | 2.6 | 4.3 | 0.00 | 0.00 | 0.00 | 82 | 1014.3 |
| 20260901102236 | 77 | 155 | 1.7 | 2.6 | 0.00 | 0.00 | 0.00 | 82 | 1014.3 |
| 20260901101747 | 77 | 155 | 2.6 | 2.6 | 0.00 | 0.00 | 0.00 | 82 | 1014.4 |
| 20260901101553 | 76 | 155 | 0.9 | 2.6 | 0.00 | 0.00 | 0.00 | 82 | 1011.7 |
| 20260901101231 | 77 | 155 | 0.9 | 2.6 | 0.00 | 0.00 | 0.00 | 82 | 1014.4 |
| 20260901100743 | 77 | 155 | 1.7 | 4.3 | 0.00 | 0.00 | 0.00 | 82 | 1014.5 |
| 20260901100225 | 77 | 155 | 1.7 | 2.6 | 0.00 | 0.00 | 0.00 | 81 | 1014.4 |
| 20260901100105 | 77 | 155 | 0.9 | 2.6 | 0.00 | 0.00 | 0.00 | 81 | 1011.8 |
| 20260901095736 | 77 | 155 | 1.7 | 4.3 | 0.00 | 0.00 | 0.00 | 81 | 1014.5 |
| 20260901095247 | 77 | 155 | 1.7 | 5.2 | 0.00 | 0.00 | 0.00 | 82 | 1014.5 |
| 20260901094732 | 77 | 155 | 2.6 | 7.0 | 0.00 | 0.00 | 0.00 | 82 | 1014.5 |
| 20260901094509 | 77 | 155 | 2.6 | 7.0 | 0.00 | 0.00 | 0.00 | 82 | 1011.9 |
| 20260901094246 | 77 | 154 | 3.5 | 7.0 | 0.00 | 0.00 | 0.00 | 82 | 1014.5 |
| 20260901093726 | 77 | 159 | 4.3 | 6.1 | 0.00 | 0.00 | 0.00 | 82 | 1014.5 |
| 20260901093237 | 77 | 155 | 2.6 | 3.5 | 0.00 | 0.00 | 0.00 | 83 | 1014.5 |
| 20260901093017 | 77 | 142 | 1.7 | 3.5 | 0.00 | 0.00 | 0.00 | 83 | 1011.8 |
| 20260901092750 | 77 | 142 | 1.7 | 3.5 | 0.00 | 0.00 | 0.00 | 83 | 1014.5 |
| 20260901092243 | 77 | 142 | 2.6 | 4.3 | 0.00 | 0.00 | 0.00 | 84 | 1014.5 |
| 20260901091725 | 77 | 142 | 3.5 | 4.3 | 0.00 | 0.00 | 0.00 | 84 | 1014.5 |
| 20260901091507 | 77 | 142 | 1.7 | 4.3 | 0.00 | 0.00 | 0.00 | 84 | 1011.9 |
| 20260901091239 | 77 | 129 | 2.6 | 4.3 | 0.00 | 0.00 | 0.00 | 84 | 1014.6 |
| 20260901090751 | 77 | 129 | 2.6 | 4.3 | 0.00 | 0.00 | 0.00 | 84 | 1014.6 |
| 20260901090257 | 77 | 129 | 2.6 | 4.3 | 0.00 | 0.00 | 0.00 | 84 | 1014.6 |
| 20260901090040 | 77 | 142 | 2.6 | 3.5 | 0.00 | 0.00 | 0.00 | 84 | 1011.9 |
| 20260901085747 | 77 | 128 | 2.6 | 3.5 | 0.00 | 0.00 | 0.00 | 84 | 1014.6 |
| 20260901085232 | 77 | 128 | 2.6 | 3.5 | 0.00 | 0.00 | 0.00 | 85 | 1014.5 |
| 20260901084744 | 77 | 128 | 2.6 | 3.5 | 0.00 | 0.00 | 0.00 | 85 | 1014.5 |
| 20260901084527 | 77 | 128 | 1.7 | 5.2 | 0.00 | 0.00 | 0.00 | 85 | 1011.8 |
| 20260901084233 | 77 | 128 | 1.7 | 5.2 | 0.00 | 0.00 | 0.00 | 85 | 1014.5 |
| 20260901083745 | 77 | 128 | 2.6 | 6.1 | 0.00 | 0.00 | 0.00 | 85 | 1014.5 |
| 20260901083235 | 77 | 111 | 3.5 | 5.2 | 0.00 | 0.00 | 0.00 | 85 | 1014.4 |
| 20260901083013 | 76 | 123 | 2.6 | 5.2 | 0.00 | 0.00 | 0.00 | 85 | 1011.7 |
| 20260901082742 | 77 | 117 | 2.6 | 3.5 | 0.00 | 0.00 | 0.00 | 85 | 1014.4 |
| 20260901082227 | 77 | 110 | 2.6 | 3.5 | 0.00 | 0.00 | 0.00 | 85 | 1014.4 |
| 20260901081740 | 77 | 110 | 1.7 | 3.5 | 0.00 | 0.00 | 0.00 | 85 | 1014.4 |
| 20260901081515 | 77 | 110 | 1.7 | 3.5 | 0.00 | 0.00 | 0.00 | 85 | 1011.7 |
| 20260901081235 | 77 | 110 | 1.7 | 4.3 | 0.00 | 0.00 | 0.00 | 85 | 1014.4 |
| 20260901080747 | 77 | 115 | 2.6 | 4.3 | 0.00 | 0.00 | 0.00 | 85 | 1014.4 |
| 20260901080233 | 77 | 110 | 2.6 | 5.2 | 0.00 | 0.00 | 0.00 | 85 | 1014.4 |
| 20260901080059 | 77 | 112 | 2.6 | 3.5 | 0.00 | 0.00 | 0.00 | 85 | 1011.7 |
| 20260901075747 | 77 | 128 | 2.6 | 3.5 | 0.00 | 0.00 | 0.00 | 85 | 1014.5 |
| 20260901075230 | 77 | 128 | 1.7 | 2.6 | 0.00 | 0.00 | 0.00 | 85 | 1014.4 |
| 20260901074738 | 77 | 128 | 2.6 | 3.5 | 0.00 | 0.00 | 0.00 | 85 | 1014.5 |
| 20260901074601 | 77 | 128 | 1.7 | 3.5 | 0.00 | 0.00 | 0.00 | 85 | 1011.8 |
| 20260901074252 | 77 | 128 | 1.7 | 5.2 | 0.00 | 0.00 | 0.00 | 85 | 1014.4 |
| 20260901073742 | 77 | 128 | 2.6 | 6.1 | 0.00 | 0.00 | 0.00 | 85 | 1014.4 |
| 20260901073225 | 77 | 116 | 3.5 | 6.1 | 0.00 | 0.00 | 0.00 | 84 | 1014.4 |
| 20260901073046 | 77 | 116 | 1.7 | 4.3 | 0.00 | 0.00 | 0.00 | 84 | 1011.7 |
| 20260901072737 | 78 | 113 | 2.6 | 4.3 | 0.00 | 0.00 | 0.00 | 84 | 1014.5 |
| 20260901072309 | 78 | 94 | 2.6 | 4.3 | 0.00 | 0.00 | 0.00 | 84 | 1014.4 |
| 20260901071731 | 78 | 58 | 0.9 | 2.6 | 0.00 | 0.00 | 0.00 | 83 | 1014.5 |
| 20260901071528 | 77 | 58 | 1.7 | 3.5 | 0.00 | 0.00 | 0.00 | 83 | 1011.9 |
| 20260901071243 | 78 | 58 | 1.7 | 3.5 | 0.00 | 0.00 | 0.00 | 83 | 1014.5 |
| 20260901070751 | 78 | 58 | 1.7 | 3.5 | 0.00 | 0.00 | 0.00 | 83 | 1014.5 |
| 20260901070242 | 78 | 58 | 1.7 | 3.5 | 0.00 | 0.00 | 0.00 | 82 | 1014.6 |
| 20260901070104 | 78 | 58 | 1.7 | 3.5 | 0.00 | 0.00 | 0.00 | 82 | 1011.9 |
| 20260901070001 | 78 | 58 | 1.7 | 2.6 | 0.00 | 0.00 | 0.00 | 82 | 1011.8 |
| 20260901065727 | 78 | 58 | 1.7 | 2.6 | 0.00 | 0.00 | 0.00 | 82 | 1014.6 |
| 20260901065238 | 79 | 58 | 1.7 | 3.5 | 0.00 | 0.00 | 0.00 | 82 | 1014.5 |
| 20260901064750 | 79 | 58 | 1.7 | 3.5 | 0.00 | 0.00 | 0.00 | 82 | 1014.5 |
| 20260901064547 | 78 | 58 | 1.7 | 3.5 | 0.00 | 0.00 | 0.00 | 82 | 1011.8 |
| 20260901064244 | 79 | 54 | 1.7 | 4.3 | 0.00 | 0.00 | 0.00 | 82 | 1014.5 |
| 20260901063723 | 79 | 54 | 0.9 | 4.3 | 0.00 | 0.00 | 0.00 | 82 | 1014.5 |
| 20260901063236 | 79 | 59 | 1.7 | 5.2 | 0.00 | 0.00 | 0.00 | 82 | 1014.4 |
| 20260901063056 | 79 | 61 | 1.7 | 5.2 | 0.00 | 0.00 | 0.00 | 82 | 1011.8 |
| 20260901062747 | 79 | 55 | 2.6 | 5.2 | 0.00 | 0.00 | 0.00 | 82 | 1014.5 |
| 20260901062231 | 79 | 59 | 3.5 | 6.1 | 0.00 | 0.00 | 0.00 | 82 | 1014.5 |
| 20260901061745 | 80 | 64 | 2.6 | 4.3 | 0.00 | 0.00 | 0.00 | 81 | 1014.6 |
| 20260901061547 | 79 | 64 | 2.6 | 4.3 | 0.00 | 0.00 | 0.00 | 81 | 1012.0 |
| 20260901061231 | 80 | 63 | 2.6 | 5.2 | 0.00 | 0.00 | 0.00 | 81 | 1014.6 |
| 20260901060742 | 80 | 66 | 1.7 | 5.2 | 0.00 | 0.00 | 0.00 | 81 | 1014.7 |
| 20260901060227 | 80 | 65 | 2.6 | 4.3 | 0.00 | 0.00 | 0.00 | 81 | 1014.7 |
| 20260901060054 | 79 | 91 | 1.7 | 4.3 | 0.00 | 0.00 | 0.00 | 81 | 1012.1 |
| 20260901055737 | 80 | 97 | 2.6 | 4.3 | 0.00 | 0.00 | 0.00 | 81 | 1014.8 |
| 20260901055250 | 80 | 94 | 2.6 | 5.2 | 0.00 | 0.00 | 0.00 | 82 | 1014.7 |
| 20260901054734 | 80 | 92 | 2.6 | 6.1 | 0.00 | 0.00 | 0.00 | 82 | 1014.7 |
| 20260901054558 | 79 | 116 | 2.6 | 6.1 | 0.00 | 0.00 | 0.00 | 82 | 1012.0 |
| 20260901054248 | 80 | 96 | 3.5 | 6.1 | 0.00 | 0.00 | 0.00 | 82 | 1014.7 |
| 20260901053730 | 79 | 95 | 3.5 | 5.2 | 0.00 | 0.00 | 0.00 | 82 | 1014.7 |
| 20260901053242 | 79 | 88 | 2.6 | 5.2 | 0.00 | 0.00 | 0.00 | 82 | 1014.7 |
| 20260901053000 | 79 | 101 | 1.7 | 5.2 | 0.00 | 0.00 | 0.00 | 82 | 1012.0 |
| 20260901052727 | 79 | 111 | 1.7 | 5.2 | 0.00 | 0.00 | 0.00 | 82 | 1014.8 |
| 20260901052239 | 80 | 111 | 1.7 | 5.2 | 0.00 | 0.00 | 0.00 | 82 | 1014.9 |
| 20260901051721 | 80 | 84 | 2.6 | 5.2 | 0.00 | 0.00 | 0.00 | 82 | 1014.8 |
| 20260901051513 | 79 | 93 | 1.7 | 3.5 | 0.00 | 0.00 | 0.00 | 81 | 1012.2 |
| 20260901051231 | 80 | 93 | 1.7 | 3.5 | 0.00 | 0.00 | 0.00 | 81 | 1014.9 |
| 20260901050740 | 80 | 65 | 0.0 | 1.7 | 0.00 | 0.00 | 0.00 | 80 | 1014.9 |
| 20260901050226 | 80 | 65 | 0.0 | 1.7 | 0.00 | 0.00 | 0.00 | 80 | 1014.9 |
| 20260901050019 | 80 | 65 | 0.0 | 1.7 | 0.00 | 0.00 | 0.00 | 80 | 1012.2 |
| 20260901045738 | 80 | 65 | 0.0 | 0.0 | 0.00 | 0.00 | 0.00 | 80 | 1014.9 |
| 20260901045222 | 80 | 65 | 0.0 | 2.6 | 0.00 | 0.00 | 0.00 | 80 | 1014.9 |
| 20260901044733 | 80 | 65 | 0.9 | 2.6 | 0.00 | 0.00 | 0.00 | 79 | 1014.8 |
| 20260901044514 | 80 | 65 | 0.9 | 1.7 | 0.00 | 0.00 | 0.00 | 79 | 1012.1 |
| 20260901044248 | 81 | 65 | 0.9 | 1.7 | 0.00 | 0.00 | 0.00 | 79 | 1014.8 |
| 20260901043731 | 81 | 65 | 0.9 | 1.7 | 0.00 | 0.00 | 0.00 | 78 | 1014.8 |
| 20260901043239 | 81 | 65 | 0.9 | 1.7 | 0.00 | 0.00 | 0.00 | 78 | 1014.8 |
| 20260901043014 | 80 | 65 | 0.9 | 1.7 | 0.00 | 0.00 | 0.00 | 78 | 1012.0 |
| 20260901042722 | 81 | 65 | 0.9 | 1.7 | 0.00 | 0.00 | 0.00 | 78 | 1014.7 |
| 20260901042233 | 81 | 65 | 0.9 | 1.7 | 0.00 | 0.00 | 0.00 | 77 | 1014.7 |
| 20260901041743 | 81 | 65 | 0.9 | 1.7 | 0.00 | 0.00 | 0.00 | 77 | 1014.8 |
| 20260901041520 | 81 | 65 | 0.0 | 1.7 | 0.00 | 0.00 | 0.00 | 77 | 1012.1 |
| 20260901041227 | 81 | 65 | 1.7 | 1.7 | 0.00 | 0.00 | 0.00 | 77 | 1014.8 |
| 20260901040755 | 82 | 65 | 0.9 | 1.7 | 0.00 | 0.00 | 0.00 | 77 | 1014.8 |
| 20260901040245 | 82 | 65 | 0.9 | 1.7 | 0.00 | 0.00 | 0.00 | 76 | 1014.8 |
| 20260901040044 | 81 | 65 | 0.0 | 1.7 | 0.00 | 0.00 | 0.00 | 76 | 1012.1 |
| 20260901035731 | 82 | 65 | 0.0 | 0.9 | 0.00 | 0.00 | 0.00 | 76 | 1014.8 |
| 20260901035243 | 82 | 65 | 0.0 | 1.7 | 0.00 | 0.00 | 0.00 | 76 | 1014.8 |
| 20260901034727 | 82 | 65 | 0.9 | 1.7 | 0.00 | 0.00 | 0.00 | 76 | 1014.7 |
| 20260901034550 | 82 | 65 | 0.0 | 1.7 | 0.00 | 0.00 | 0.00 | 75 | 1011.9 |
| 20260901034239 | 82 | 65 | 0.9 | 2.6 | 0.00 | 0.00 | 0.00 | 76 | 1014.6 |
| 20260901033731 | 83 | 65 | 0.9 | 2.6 | 0.00 | 0.00 | 0.00 | 75 | 1014.6 |
| 20260901033245 | 83 | 65 | 1.7 | 2.6 | 0.00 | 0.00 | 0.00 | 75 | 1014.6 |
| 20260901033044 | 82 | 65 | 0.0 | 2.6 | 0.00 | 0.00 | 0.00 | 75 | 1011.9 |
| 20260901032728 | 83 | 65 | 1.7 | 2.6 | 0.00 | 0.00 | 0.00 | 75 | 1014.6 |
| 20260901032255 | 83 | 65 | 1.7 | 2.6 | 0.00 | 0.00 | 0.00 | 75 | 1014.5 |
| 20260901031747 | 83 | 65 | 1.7 | 3.5 | 0.00 | 0.00 | 0.00 | 75 | 1014.5 |
| 20260901031528 | 83 | 65 | 1.7 | 3.5 | 0.00 | 0.00 | 0.00 | 75 | 1011.7 |
| 20260901031230 | 83 | 65 | 1.7 | 3.5 | 0.00 | 0.00 | 0.00 | 75 | 1014.4 |
| 20260901030741 | 83 | 65 | 1.7 | 3.5 | 0.00 | 0.00 | 0.00 | 75 | 1014.4 |
| 20260901030226 | 84 | 66 | 2.6 | 3.5 | 0.00 | 0.00 | 0.00 | 75 | 1014.5 |
| 20260901030034 | 83 | 66 | 1.7 | 3.5 | 0.00 | 0.00 | 0.00 | 75 | 1011.7 |
| 20260901025737 | 84 | 71 | 1.7 | 3.5 | 0.00 | 0.00 | 0.00 | 74 | 1014.5 |
| 20260901025249 | 84 | 71 | 2.6 | 4.3 | 0.00 | 0.00 | 0.00 | 74 | 1014.4 |
| 20260901024731 | 84 | 87 | 2.6 | 6.1 | 0.00 | 0.00 | 0.00 | 74 | 1014.3 |
| 20260901024531 | 83 | 73 | 1.7 | 6.1 | 0.00 | 0.00 | 0.00 | 73 | 1011.5 |
| 20260901024301 | 84 | 92 | 2.6 | 6.1 | 0.00 | 0.00 | 0.00 | 73 | 1014.3 |
| 20260901023722 | 84 | 94 | 3.5 | 6.1 | 0.00 | 0.00 | 0.00 | 73 | 1014.3 |
| 20260901023233 | 84 | 90 | 3.5 | 6.1 | 0.00 | 0.00 | 0.00 | 73 | 1014.2 |
| 20260901023011 | 84 | 87 | 2.6 | 5.2 | 0.00 | 0.00 | 0.00 | 73 | 1011.4 |
| 20260901022744 | 84 | 92 | 2.6 | 5.2 | 0.00 | 0.00 | 0.00 | 73 | 1014.2 |
| 20260901022226 | 85 | 99 | 2.6 | 5.2 | 0.00 | 0.00 | 0.00 | 72 | 1014.2 |
| 20260901021736 | 85 | 99 | 2.6 | 5.2 | 0.00 | 0.00 | 0.00 | 72 | 1014.1 |
| 20260901021558 | 84 | 99 | 2.6 | 5.2 | 0.00 | 0.00 | 0.00 | 72 | 1011.4 |
| 20260901021249 | 85 | 99 | 2.6 | 3.5 | 0.00 | 0.00 | 0.00 | 72 | 1014.1 |
| 20260901020727 | 85 | 99 | 2.6 | 3.5 | 0.00 | 0.00 | 0.00 | 71 | 1014.0 |
| 20260901020240 | 86 | 75 | 1.7 | 3.5 | 0.00 | 0.00 | 0.00 | 71 | 1014.0 |
| 20260901020007 | 85 | 96 | 1.7 | 3.5 | 0.00 | 0.00 | 0.00 | 70 | 1011.2 |
| 20260901015723 | 86 | 96 | 2.6 | 3.5 | 0.00 | 0.00 | 0.00 | 70 | 1013.9 |
| 20260901015234 | 86 | 99 | 1.7 | 2.6 | 0.00 | 0.00 | 0.00 | 69 | 1013.9 |
| 20260901014746 | 86 | 99 | 1.7 | 3.5 | 0.00 | 0.00 | 0.00 | 69 | 1013.9 |
| 20260901014516 | 86 | 99 | 0.9 | 3.5 | 0.00 | 0.00 | 0.00 | 68 | 1011.1 |
| 20260901014231 | 87 | 99 | 1.7 | 3.5 | 0.00 | 0.00 | 0.00 | 68 | 1013.9 |
| 20260901013743 | 87 | 216 | 1.7 | 2.6 | 0.00 | 0.00 | 0.00 | 68 | 1013.8 |
| 20260901013225 | 87 | 216 | 1.7 | 2.6 | 0.00 | 0.00 | 0.00 | 68 | 1013.7 |
| 20260901013010 | 87 | 216 | 1.7 | 2.6 | 0.00 | 0.00 | 0.00 | 67 | 1010.9 |
| 20260901012752 | 87 | 216 | 1.7 | 2.6 | 0.00 | 0.00 | 0.00 | 67 | 1013.7 |
| 20260901012243 | 87 | 216 | 1.7 | 1.7 | 0.00 | 0.00 | 0.00 | 67 | 1013.7 |
| 20260901011733 | 88 | 216 | 0.9 | 1.7 | 0.00 | 0.00 | 0.00 | 66 | 1013.8 |
| 20260901011531 | 87 | 216 | 0.0 | 1.7 | 0.00 | 0.00 | 0.00 | 66 | 1011.0 |
| 20260901011308 | 88 | 216 | 0.9 | 0.9 | 0.00 | 0.00 | 0.00 | 65 | 1013.8 |
| 20260901010728 | 88 | 216 | 0.9 | 0.9 | 0.00 | 0.00 | 0.00 | 65 | 1013.9 |
| 20260901010239 | 88 | 216 | 0.0 | 0.9 | 0.00 | 0.00 | 0.00 | 65 | 1013.8 |
| 20260901010013 | 88 | 216 | 0.0 | 0.9 | 0.00 | 0.00 | 0.00 | 65 | 1011.0 |
| 20260901005722 | 88 | 216 | 0.0 | 0.9 | 0.00 | 0.00 | 0.00 | 65 | 1013.8 |
| 20260901005249 | 89 | 216 | 0.0 | 1.7 | 0.00 | 0.00 | 0.00 | 65 | 1013.9 |
| 20260901004731 | 89 | 216 | 0.9 | 1.7 | 0.00 | 0.00 | 0.00 | 65 | 1013.9 |
| 20260901004528 | 88 | 216 | 0.9 | 1.7 | 0.00 | 0.00 | 0.00 | 65 | 1011.0 |
| 20260901004243 | 89 | 216 | 0.9 | 1.7 | 0.00 | 0.00 | 0.00 | 65 | 1013.9 |
| 20260901003724 | 89 | 216 | 0.9 | 1.7 | 0.00 | 0.00 | 0.00 | 65 | 1013.9 |
| 20260901003235 | 89 | 216 | 0.9 | 1.7 | 0.00 | 0.00 | 0.00 | 65 | 1013.9 |
| 20260901003023 | 89 | 216 | 0.0 | 1.7 | 0.00 | 0.00 | 0.00 | 65 | 1011.0 |
| 20260901002746 | 90 | 216 | 0.0 | 2.6 | 0.00 | 0.00 | 0.00 | 65 | 1013.9 |
| 20260901002236 | 90 | 216 | 0.9 | 2.6 | 0.00 | 0.00 | 0.00 | 65 | 1014.0 |
| 20260901001743 | 90 | 216 | 1.7 | 1.7 | 0.00 | 0.00 | 0.00 | 64 | 1014.0 |
| 20260901001600 | 90 | 216 | 0.0 | 0.9 | 0.00 | 0.00 | 0.00 | 63 | 1011.1 |
| 20260901001226 | 90 | 216 | 0.0 | 0.0 | 0.00 | 0.00 | 0.00 | 62 | 1013.9 |
| 20260901000734 | 90 | 216 | 0.0 | 0.0 | 0.00 | 0.00 | 0.00 | 62 | 1014.0 |
| 20260901000245 | 90 | 216 | 0.0 | 1.7 | 0.00 | 0.00 | 0.00 | 62 | 1014.0 |
| 20260901000058 | 90 | 216 | 0.0 | 1.7 | 0.00 | 0.00 | 0.00 | 62 | 1011.2 |
| 20260831235727 | 91 | 216 | 0.9 | 1.7 | 0.00 | 0.00 | 0.00 | 62 | 1014.0 |
| 20260831235240 | 91 | 216 | 0.0 | 1.7 | 0.00 | 0.00 | 0.00 | 62 | 1014.0 |
| 20260831234723 | 91 | 216 | 0.9 | 2.6 | 0.00 | 0.00 | 0.00 | 61 | 1014.0 |
| 20260831234504 | 91 | 216 | 0.9 | 2.6 | 0.00 | 0.00 | 0.00 | 61 | 1011.1 |
| 20260831234311 | 92 | 216 | 0.9 | 2.6 | 0.00 | 0.00 | 0.00 | 61 | 1014.0 |
| 20260831233732 | 92 | 216 | 0.9 | 2.6 | 0.00 | 0.00 | 0.00 | 60 | 1014.0 |
| 20260831233243 | 92 | 216 | 0.9 | 1.7 | 0.00 | 0.00 | 0.00 | 60 | 1014.1 |
| 20260831233031 | 92 | 216 | 0.9 | 1.7 | 0.00 | 0.00 | 0.00 | 60 | 1011.2 |
| 20260831232726 | 92 | 216 | 0.9 | 1.7 | 0.00 | 0.00 | 0.00 | 61 | 1014.1 |
| 20260831232259 | 93 | 216 | 0.9 | 1.7 | 0.00 | 0.00 | 0.00 | 60 | 1014.1 |
| 20260831231721 | 93 | 216 | 1.7 | 3.5 | 0.00 | 0.00 | 0.00 | 59 | 1014.1 |
| 20260831231505 | 92 | 216 | 0.9 | 3.5 | 0.00 | 0.00 | 0.00 | 59 | 1011.2 |
| 20260831231234 | 93 | 216 | 1.7 | 3.5 | 0.00 | 0.00 | 0.00 | 60 | 1014.1 |
| 20260831230738 | 93 | 216 | 2.6 | 3.5 | 0.00 | 0.00 | 0.00 | 59 | 1014.1 |
| 20260831230221 | 93 | 216 | 0.9 | 3.5 | 0.00 | 0.00 | 0.00 | 61 | 1014.1 |
| 20260831230010 | 93 | 216 | 0.9 | 4.3 | 0.00 | 0.00 | 0.00 | 60 | 1011.2 |
| 20260831225733 | 93 | 216 | 2.6 | 4.3 | 0.00 | 0.00 | 0.00 | 59 | 1014.1 |
| 20260831225245 | 93 | 216 | 2.6 | 4.3 | 0.00 | 0.00 | 0.00 | 59 | 1014.1 |
| 20260831224736 | 93 | 216 | 1.7 | 3.5 | 0.00 | 0.00 | 0.00 | 62 | 1014.1 |
| 20260831224553 | 93 | 216 | 0.9 | 3.5 | 0.00 | 0.00 | 0.00 | 62 | 1011.2 |
| 20260831224248 | 93 | 216 | 1.7 | 3.5 | 0.00 | 0.00 | 0.00 | 62 | 1014.1 |
| 20260831223729 | 93 | 216 | 2.6 | 4.3 | 0.00 | 0.00 | 0.00 | 60 | 1014.1 |
| 20260831223240 | 92 | 216 | 2.6 | 5.2 | 0.00 | 0.00 | 0.00 | 60 | 1014.1 |
| 20260831223056 | 92 | 216 | 2.6 | 5.2 | 0.00 | 0.00 | 0.00 | 60 | 1011.2 |
| 20260831222747 | 92 | 216 | 2.6 | 5.2 | 0.00 | 0.00 | 0.00 | 61 | 1014.2 |
| 20260831222230 | 92 | 252 | 2.6 | 6.1 | 0.00 | 0.00 | 0.00 | 62 | 1014.2 |
| 20260831221800 | 92 | 252 | 1.7 | 6.1 | 0.00 | 0.00 | 0.00 | 62 | 1014.2 |
| 20260831221543 | 91 | 252 | 2.6 | 6.1 | 0.00 | 0.00 | 0.00 | 63 | 1011.3 |
| 20260831221250 | 92 | 252 | 3.5 | 6.1 | 0.00 | 0.00 | 0.00 | 63 | 1014.1 |
| 20260831220731 | 92 | 248 | 3.5 | 4.3 | 0.00 | 0.00 | 0.00 | 65 | 1014.2 |
| 20260831220242 | 91 | 248 | 3.5 | 4.3 | 0.00 | 0.00 | 0.00 | 64 | 1014.2 |
| 20260831220039 | 91 | 248 | 2.6 | 4.3 | 0.00 | 0.00 | 0.00 | 63 | 1011.3 |
| 20260831215724 | 91 | 248 | 2.6 | 6.1 | 0.00 | 0.00 | 0.00 | 62 | 1014.2 |
| 20260831215249 | 91 | 248 | 2.6 | 6.1 | 0.00 | 0.00 | 0.00 | 63 | 1014.2 |
| 20260831214733 | 91 | 263 | 3.5 | 6.1 | 0.00 | 0.00 | 0.00 | 64 | 1014.2 |
| 20260831214532 | 90 | 252 | 2.6 | 6.1 | 0.00 | 0.00 | 0.00 | 65 | 1011.3 |
| 20260831214306 | 91 | 252 | 3.5 | 6.1 | 0.00 | 0.00 | 0.00 | 63 | 1014.2 |
| 20260831213728 | 91 | 229 | 4.3 | 7.0 | 0.00 | 0.00 | 0.00 | 63 | 1014.2 |
| 20260831213239 | 90 | 225 | 6.1 | 7.8 | 0.00 | 0.00 | 0.00 | 63 | 1014.3 |
| 20260831213052 | 90 | 252 | 5.2 | 7.8 | 0.00 | 0.00 | 0.00 | 63 | 1011.4 |
| 20260831212723 | 90 | 236 | 5.2 | 8.7 | 0.00 | 0.00 | 0.00 | 64 | 1014.3 |
| 20260831212235 | 90 | 221 | 5.2 | 8.7 | 0.00 | 0.00 | 0.00 | 65 | 1014.4 |
| 20260831211744 | 90 | 220 | 5.2 | 8.7 | 0.00 | 0.00 | 0.00 | 64 | 1014.3 |
| 20260831211511 | 90 | 214 | 4.3 | 8.7 | 0.00 | 0.00 | 0.00 | 63 | 1011.5 |
| 20260831211228 | 90 | 219 | 6.1 | 8.7 | 0.00 | 0.00 | 0.00 | 65 | 1014.4 |
| 20260831210738 | 90 | 233 | 5.2 | 7.8 | 0.00 | 0.00 | 0.00 | 64 | 1014.4 |
| 20260831210249 | 91 | 211 | 5.2 | 7.8 | 0.00 | 0.00 | 0.00 | 63 | 1014.5 |
| 20260831210015 | 90 | 222 | 4.3 | 9.6 | 0.00 | 0.00 | 0.00 | 63 | 1011.5 |
| 20260831205731 | 91 | 202 | 4.3 | 9.6 | 0.00 | 0.00 | 0.00 | 62 | 1014.4 |
| 20260831205305 | 91 | 230 | 7.0 | 10.4 | 0.00 | 0.00 | 0.00 | 60 | 1014.4 |
| 20260831204752 | 91 | 217 | 7.0 | 10.4 | 0.00 | 0.00 | 0.00 | 62 | 1014.4 |
| 20260831204539 | 90 | 220 | 6.1 | 12.2 | 0.00 | 0.00 | 0.00 | 62 | 1011.6 |
| 20260831204241 | 91 | 215 | 7.8 | 13.0 | 0.00 | 0.00 | 0.00 | 64 | 1014.5 |
| 20260831203722 | 91 | 247 | 7.8 | 13.0 | 0.00 | 0.00 | 0.00 | 62 | 1014.6 |
| 20260831203254 | 91 | 245 | 7.8 | 12.2 | 0.00 | 0.00 | 0.00 | 63 | 1014.5 |
| 20260831203025 | 90 | 217 | 7.0 | 10.4 | 0.00 | 0.00 | 0.00 | 66 | 1011.7 |
| 20260831202743 | 90 | 254 | 7.8 | 10.4 | 0.00 | 0.00 | 0.00 | 67 | 1014.6 |
| 20260831202227 | 89 | 216 | 6.1 | 9.6 | 0.00 | 0.00 | 0.00 | 67 | 1014.6 |
| 20260831201759 | 89 | 242 | 5.2 | 12.2 | 0.00 | 0.00 | 0.00 | 66 | 1014.6 |
| 20260831201559 | 89 | 238 | 7.0 | 12.2 | 0.00 | 0.00 | 0.00 | 66 | 1011.8 |
| 20260831201513 | 89 | 241 | 7.0 | 12.2 | 0.00 | 0.00 | 0.00 | 66 | 1011.8 |
| 20260831201222 | 89 | 236 | 7.8 | 9.6 | 0.00 | 0.00 | 0.00 | 69 | 1014.6 |
| 20260831200747 | 89 | 232 | 5.2 | 10.4 | 0.00 | 0.00 | 0.00 | 67 | 1014.7 |
| 20260831200238 | 88 | 242 | 6.1 | 8.7 | 0.00 | 0.00 | 0.00 | 69 | 1014.7 |
| 20260831200047 | 88 | 237 | 4.3 | 8.7 | 0.00 | 0.00 | 0.00 | 70 | 1011.8 |
| 20260831195749 | 88 | 245 | 6.1 | 8.7 | 0.00 | 0.00 | 0.00 | 68 | 1014.7 |
| 20260831195240 | 88 | 211 | 5.2 | 7.8 | 0.00 | 0.00 | 0.00 | 69 | 1014.6 |
| 20260831194722 | 88 | 228 | 5.2 | 8.7 | 0.00 | 0.00 | 0.00 | 68 | 1014.7 |
| 20260831194531 | 88 | 233 | 4.3 | 8.7 | 0.00 | 0.00 | 0.00 | 69 | 1011.9 |
| 20260831194234 | 88 | 233 | 6.1 | 8.7 | 0.00 | 0.00 | 0.00 | 68 | 1014.7 |
| 20260831193740 | 88 | 238 | 5.2 | 9.6 | 0.00 | 0.00 | 0.00 | 66 | 1014.8 |
| 20260831193222 | 88 | 237 | 7.0 | 9.6 | 0.00 | 0.00 | 0.00 | 66 | 1014.7 |
| 20260831193036 | 88 | 240 | 4.3 | 7.8 | 0.00 | 0.00 | 0.00 | 66 | 1011.9 |
| 20260831192734 | 89 | 229 | 5.2 | 7.0 | 0.00 | 0.00 | 0.00 | 67 | 1014.7 |
| 20260831192247 | 89 | 239 | 5.2 | 7.8 | 0.00 | 0.00 | 0.00 | 66 | 1014.7 |
| 20260831191730 | 89 | 235 | 5.2 | 8.7 | 0.00 | 0.00 | 0.00 | 65 | 1014.7 |
| 20260831191528 | 89 | 215 | 4.3 | 8.7 | 0.00 | 0.00 | 0.00 | 66 | 1011.8 |
| 20260831191303 | 90 | 223 | 6.1 | 8.7 | 0.00 | 0.00 | 0.00 | 66 | 1014.7 |
| 20260831190722 | 90 | 242 | 5.2 | 9.6 | 0.00 | 0.00 | 0.00 | 65 | 1014.6 |
| 20260831190309 | 90 | 232 | 5.2 | 8.7 | 0.00 | 0.00 | 0.00 | 65 | 1014.6 |
| 20260831190056 | 90 | 238 | 5.2 | 8.7 | 0.00 | 0.00 | 0.00 | 66 | 1011.7 |
| 20260831185732 | 91 | 201 | 6.1 | 8.7 | 0.00 | 0.00 | 0.00 | 67 | 1014.6 |
| 20260831185243 | 90 | 220 | 5.2 | 8.7 | 0.00 | 0.00 | 0.00 | 64 | 1014.6 |
| 20260831184726 | 90 | 239 | 4.3 | 7.8 | 0.00 | 0.00 | 0.00 | 64 | 1014.6 |
| 20260831184546 | 90 | 217 | 3.5 | 7.8 | 0.00 | 0.00 | 0.00 | 61 | 1011.8 |
| 20260831184240 | 90 | 232 | 3.5 | 7.8 | 0.00 | 0.00 | 0.00 | 62 | 1014.7 |
| 20260831183722 | 90 | 225 | 3.5 | 5.2 | 0.00 | 0.00 | 0.00 | 63 | 1014.6 |
| 20260831183233 | 90 | 215 | 3.5 | 5.2 | 0.00 | 0.00 | 0.00 | 61 | 1014.6 |
| 20260831183058 | 90 | 215 | 2.6 | 4.3 | 0.00 | 0.00 | 0.00 | 62 | 1011.8 |
| 20260831182744 | 90 | 215 | 1.7 | 4.3 | 0.00 | 0.00 | 0.00 | 62 | 1014.6 |
| 20260831182222 | 90 | 215 | 2.6 | 5.2 | 0.00 | 0.00 | 0.00 | 61 | 1014.6 |
| 20260831181735 | 91 | 215 | 3.5 | 5.2 | 0.00 | 0.00 | 0.00 | 61 | 1014.5 |
| 20260831181550 | 90 | 202 | 3.5 | 5.2 | 0.00 | 0.00 | 0.00 | 61 | 1011.7 |
| 20260831181246 | 91 | 236 | 1.7 | 6.1 | 0.00 | 0.00 | 0.00 | 62 | 1014.6 |
| 20260831180726 | 90 | 236 | 4.3 | 6.1 | 0.00 | 0.00 | 0.00 | 65 | 1014.6 |
| 20260831180237 | 90 | 192 | 3.5 | 6.1 | 0.00 | 0.00 | 0.00 | 64 | 1014.6 |
| 20260831180050 | 90 | 241 | 2.6 | 7.0 | 0.00 | 0.00 | 0.00 | 63 | 1011.7 |
| 20260831175749 | 90 | 252 | 2.6 | 6.1 | 0.00 | 0.00 | 0.00 | 66 | 1014.5 |
| 20260831175230 | 90 | 258 | 1.7 | 7.0 | 0.00 | 0.00 | 0.00 | 64 | 1014.5 |
| 20260831174800 | 90 | 259 | 3.5 | 7.0 | 0.00 | 0.00 | 0.00 | 65 | 1014.5 |
| 20260831174523 | 89 | 240 | 1.7 | 7.8 | 0.00 | 0.00 | 0.00 | 64 | 1011.8 |
| 20260831174223 | 90 | 232 | 3.5 | 7.8 | 0.00 | 0.00 | 0.00 | 64 | 1014.6 |
| 20260831173734 | 89 | 227 | 4.3 | 7.8 | 0.00 | 0.00 | 0.00 | 64 | 1014.7 |
| 20260831173307 | 89 | 238 | 3.5 | 7.0 | 0.00 | 0.00 | 0.00 | 63 | 1014.7 |
| 20260831173101 | 89 | 238 | 3.5 | 7.0 | 0.00 | 0.00 | 0.00 | 64 | 1011.8 |
| 20260831172728 | 89 | 261 | 3.5 | 5.2 | 0.00 | 0.00 | 0.00 | 66 | 1014.7 |
| 20260831172259 | 89 | 308 | 2.6 | 6.1 | 0.00 | 0.00 | 0.00 | 67 | 1014.7 |
| 20260831171722 | 89 | 221 | 3.5 | 6.1 | 0.00 | 0.00 | 0.00 | 65 | 1014.7 |
| 20260831171539 | 88 | 251 | 2.6 | 6.1 | 0.00 | 0.00 | 0.00 | 64 | 1011.8 |
| 20260831171250 | 89 | 243 | 2.6 | 6.1 | 0.00 | 0.00 | 0.00 | 67 | 1014.6 |
| 20260831170738 | 88 | 281 | 2.6 | 7.0 | 0.00 | 0.00 | 0.00 | 68 | 1014.5 |
| 20260831170309 | 88 | 250 | 2.6 | 8.7 | 0.00 | 0.00 | 0.00 | 69 | 1014.5 |
| 20260831170035 | 87 | 288 | 4.3 | 8.7 | 0.00 | 0.00 | 0.00 | 69 | 1011.6 |
| 20260831165728 | 87 | 260 | 3.5 | 8.7 | 0.00 | 0.00 | 0.00 | 70 | 1014.4 |
| 20260831165240 | 86 | 291 | 2.6 | 8.7 | 0.00 | 0.00 | 0.00 | 71 | 1014.3 |
| 20260831164723 | 86 | 272 | 4.3 | 8.7 | 0.00 | 0.00 | 0.00 | 70 | 1014.4 |
| 20260831164530 | 85 | 240 | 4.3 | 8.7 | 0.00 | 0.00 | 0.00 | 72 | 1011.5 |
| 20260831164237 | 85 | 279 | 3.5 | 7.0 | 0.00 | 0.00 | 0.00 | 72 | 1014.4 |
| 20260831163744 | 85 | 308 | 3.5 | 6.1 | 0.00 | 0.00 | 0.00 | 74 | 1014.2 |
| 20260831163227 | 84 | 234 | 2.6 | 7.0 | 0.00 | 0.00 | 0.00 | 73 | 1014.1 |
| 20260831163036 | 84 | 233 | 3.5 | 7.0 | 0.00 | 0.00 | 0.00 | 73 | 1011.3 |
| 20260831162758 | 84 | 247 | 4.3 | 7.0 | 0.00 | 0.00 | 0.00 | 73 | 1014.1 |
| 20260831162248 | 84 | 217 | 4.3 | 7.0 | 0.00 | 0.00 | 0.00 | 73 | 1014.3 |
| 20260831161737 | 84 | 252 | 4.3 | 6.1 | 0.00 | 0.00 | 0.00 | 73 | 1014.3 |
| 20260831161540 | 83 | 286 | 3.5 | 6.1 | 0.00 | 0.00 | 0.00 | 73 | 1011.4 |
| 20260831161250 | 84 | 237 | 3.5 | 4.3 | 0.00 | 0.00 | 0.00 | 72 | 1014.2 |
| 20260831160731 | 84 | 251 | 2.6 | 5.2 | 0.00 | 0.00 | 0.00 | 73 | 1013.9 |
| 20260831160238 | 84 | 257 | 2.6 | 5.2 | 0.00 | 0.00 | 0.00 | 75 | 1013.9 |
| 20260831160044 | 83 | 269 | 2.6 | 5.2 | 0.00 | 0.00 | 0.00 | 76 | 1011.0 |
| 20260831155746 | 83 | 251 | 2.6 | 4.3 | 0.00 | 0.00 | 0.00 | 76 | 1013.7 |
| 20260831155237 | 83 | 327 | 1.7 | 2.6 | 0.00 | 0.00 | 0.00 | 75 | 1013.7 |
| 20260831154749 | 83 | 14 | 1.7 | 5.2 | 0.00 | 0.00 | 0.00 | 76 | 1013.6 |
| 20260831154521 | 82 | 333 | 0.9 | 5.2 | 0.00 | 0.00 | 0.00 | 76 | 1010.8 |
| 20260831154232 | 83 | 333 | 2.6 | 7.0 | 0.00 | 0.00 | 0.00 | 76 | 1013.5 |
| 20260831153740 | 83 | 348 | 3.5 | 7.0 | 0.00 | 0.00 | 0.00 | 76 | 1013.5 |
| 20260831153224 | 82 | 325 | 3.5 | 7.0 | 0.00 | 0.00 | 0.00 | 77 | 1013.4 |
| 20260831153022 | 82 | 330 | 3.5 | 7.8 | 0.00 | 0.00 | 0.00 | 77 | 1010.3 |
| 20260831152732 | 82 | 310 | 5.2 | 7.8 | 0.00 | 0.00 | 0.00 | 77 | 1013.4 |
| 20260831152306 | 82 | 319 | 5.2 | 7.8 | 0.00 | 0.00 | 0.00 | 78 | 1013.6 |
| 20260831151726 | 82 | 277 | 3.5 | 7.0 | 0.00 | 0.00 | 0.00 | 76 | 1013.6 |
| 20260831151517 | 81 | 306 | 3.5 | 5.2 | 0.00 | 0.00 | 0.00 | 76 | 1010.7 |
| 20260831151238 | 82 | 313 | 4.3 | 5.2 | 0.00 | 0.00 | 0.00 | 78 | 1013.5 |
| 20260831150722 | 82 | 314 | 2.6 | 10.4 | 0.00 | 0.00 | 0.00 | 78 | 1013.5 |
| 20260831150234 | 81 | 326 | 4.3 | 10.4 | 0.00 | 0.00 | 0.00 | 78 | 1013.7 |
| 20260831150002 | 81 | 317 | 7.0 | 10.4 | 0.00 | 0.00 | 0.00 | 78 | 1010.8 |
| 20260831145745 | 81 | 317 | 6.1 | 8.7 | 0.00 | 0.00 | 0.00 | 79 | 1013.5 |
| 20260831145228 | 81 | 308 | 2.6 | 6.1 | 0.00 | 0.00 | 0.00 | 82 | 1013.3 |
| 20260831144735 | 80 | 315 | 0.9 | 5.2 | 0.00 | 0.00 | 0.00 | 83 | 1012.9 |
| 20260831144519 | 79 | 315 | 2.6 | 5.2 | 0.00 | 0.00 | 0.00 | 83 | 1010.1 |
| 20260831144250 | 80 | 315 | 3.5 | 5.2 | 0.00 | 0.00 | 0.00 | 83 | 1012.8 |
| 20260831143733 | 79 | 254 | 1.7 | 3.5 | 0.00 | 0.00 | 0.00 | 83 | 1013.0 |
| 20260831143244 | 79 | 254 | 1.7 | 3.5 | 0.00 | 0.00 | 0.00 | 83 | 1013.1 |
| 20260831143022 | 78 | 254 | 0.9 | 4.3 | 0.00 | 0.00 | 0.00 | 84 | 1010.3 |
| 20260831142727 | 79 | 254 | 0.0 | 4.3 | 0.00 | 0.00 | 0.00 | 84 | 1013.1 |
| 20260831142239 | 78 | 254 | 2.6 | 7.0 | 0.00 | 0.00 | 0.00 | 84 | 1013.1 |
| 20260831141722 | 78 | 254 | 2.6 | 10.4 | 0.00 | 0.00 | 0.00 | 84 | 1013.2 |
| 20260831141526 | 77 | 243 | 3.5 | 10.4 | 0.00 | 0.00 | 0.00 | 84 | 1010.6 |
| 20260831141236 | 78 | 250 | 6.1 | 10.4 | 0.00 | 0.00 | 0.00 | 84 | 1013.6 |
| 20260831140743 | 77 | 261 | 3.5 | 7.0 | 0.00 | 0.00 | 0.00 | 84 | 1013.3 |
| 20260831140227 | 77 | 302 | 2.6 | 7.0 | 0.00 | 0.00 | 0.00 | 84 | 1013.2 |
| 20260831140035 | 77 | 277 | 5.2 | 7.0 | 0.00 | 0.00 | 0.00 | 84 | 1010.4 |
| 20260831135739 | 77 | 286 | 3.5 | 7.0 | 0.00 | 0.00 | 0.00 | 84 | 1013.2 |
| 20260831135250 | 77 | 277 | 2.6 | 7.8 | 0.00 | 0.00 | 0.00 | 84 | 1013.2 |
| 20260831134732 | 77 | 297 | 2.6 | 8.7 | 0.00 | 0.00 | 0.00 | 84 | 1013.0 |
| 20260831134528 | 76 | 317 | 4.3 | 11.3 | 0.00 | 0.00 | 0.00 | 85 | 1010.2 |
| 20260831134245 | 77 | 293 | 6.1 | 11.3 | 0.00 | 0.00 | 0.00 | 85 | 1013.2 |
| 20260831133728 | 77 | 298 | 7.0 | 11.3 | 0.00 | 0.00 | 0.00 | 85 | 1013.3 |
| 20260831133257 | 77 | 253 | 8.7 | 11.3 | 0.00 | 0.00 | 0.00 | 85 | 1013.4 |
| 20260831133014 | 76 | 244 | 7.0 | 13.0 | 0.00 | 0.00 | 0.00 | 86 | 1010.6 |
| 20260831132748 | 77 | 254 | 7.0 | 13.0 | 0.00 | 0.00 | 0.00 | 86 | 1013.4 |
| 20260831132231 | 76 | 280 | 7.8 | 13.0 | 0.00 | 0.00 | 0.00 | 87 | 1013.3 |